Regional Weather Roundup
Issued by NWS

Home | Current Version | Previous Version | Text Only | Print | Product List | Glossary Off
Versions: 1 2 3 4 5 6 7 8 9 10 11 12 13 14 15 16 17 18 19 20 21 22 23 24 25 26 27 28 29 30 31 32 33 34 35 36 37 38 39 40 41 42 43 44 45 46 47 48 49 50

730
ASUS44 KLIX 221905
RWRLA
LOUISIANA WEATHER ROUNDUP
NATIONAL WEATHER SERVICE NEW ORLEANS LA
200 PM CDT TUE APR 22 2014

NOTE: "FAIR" INDICATES FEW OR NO CLOUDS BELOW 12,000 FEET WITH NO
      SIGNIFICANT WEATHER AND/OR OBSTRUCTIONS TO VISIBILITY.
      SKY/WX - SKY CONDITION AND SIGNIFICANT WEATHER.
      TMP - AIR TEMPERATURE.    DP   - DEWPOINT TEMPERATURE.
      RH  - RELATIVE HUMIDITY.  PRES - PRESSURE.
      HX  - HEAT INDEX.         WCI  - WIND CHILL INDEX.

*  THESE STATIONS ARE NOT NWS OR FAA STATIONS AND ARE NOT UNDER
   NWS QUALITY CONTROL.

LAZ040-048-061>063-065-066-069-222000-
SOUTHEAST LOUISIANA

CITY           SKY/WX    TMP DP  RH WIND       PRES   REMARKS
N.O. AUDUBON     N/A     73  65  77 MISG        N/A
N.O. INTL ARPT CLOUDY    72  65  78 NW13      29.95S
N.O. LAKEFRONT CLOUDY    71  66  84 W8        29.95F
N.O. DOWNTOWN* CLOUDY    73  63  68 NW5       29.95F
SLIDELL        PTSUNNY   73  65  75 SW8       29.93F
BATON ROUGE    CLOUDY    78  62  57 NW10      29.94F
BOOTHVILLE     CLOUDY    72  65  78 SW14      29.96F
BELLE CHASSE   LGT RAIN  72  63  73 W6        29.94F
BOGALUSA*        N/A     75  64  66 NW8G16    29.94F
GALLIANO*      CLOUDY    77  65  65 W9G17     29.95S
NEW ROADS*     MOCLDY    76  62  63 NW9       29.95F
GONZALES*      MOCLDY    75  67  76 W7        29.94F
HAMMOND*       PTSUNNY   81  59  47 NW10      29.94F
HOUMA*         PTSUNNY   73  64  73 SW12      29.96S
PORT FOURCHON* CLOUDY    73  66  78 W16       29.98S

$$

LAZ041-044-053-054-222000-
SOUTHWEST LOUISIANA

CITY           SKY/WX    TMP DP  RH WIND       PRES   REMARKS
LAKE CHARLES   MOSUNNY   82  61  48 N8        29.95F
LAFAYETTE      PTSUNNY   79  64  60 NW9       29.94F
PATTERSON      CLOUDY    73  68  83 W12       29.99S
SALT POINT       N/A     73  68  84 SW6       29.96F
NEW IBERIA     PTSUNNY   81  62  52 W13       29.95F
CHENAULT AIRPK NOT AVBL

$$

LAZ027-028-222000-
CENTRAL LOUISIANA

CITY           SKY/WX    TMP DP  RH WIND       PRES   REMARKS
FORT POLK      SUNNY     77  58  51 N6        29.96F
ALEXANDRIA INT PTSUNNY   77  62  59 W6        29.95F
ALEXANDRIA     PTSUNNY   79  60  52 VRB3      29.96F

$$

LAZ001-002-222000-
NORTHWEST LOUISIANA

CITY           SKY/WX    TMP DP  RH WIND       PRES   REMARKS
SHREVEPORT     MOSUNNY   80  61  52 NW10      29.98F
BARKSDALE AFB  MOSUNNY   79  59  51 NW6       29.98F
DTN SHREVEPORT MOSUNNY   75  61  61 W3        29.98F

$$

LAZ014-016-222000-
NORTHEAST LOUISIANA

CITY           SKY/WX    TMP DP  RH WIND       PRES   REMARKS
MONROE         MOSUNNY   76  60  57 N14       29.98S
TALLULAH       PTSUNNY   78  63  59 N8        29.94F

$$




USA.gov is the U.S. government's official web portal to all federal, state and local government web resources and services.